Temperature
17 17 17 17 18 18 18 18 18 18 18 18 18 18 18 18 18 18 18 18 18 18 18 18 18 18 18 18 18 18 18 18 18 18 18 18 18 18 18 18 18 18 18
18 17 18 18 18 18 18 18 18 18 18 18 18 18 18 18 18 18 18 18 18 18 18 18 18 18 18 18 18 18 18 18 18 17 18 17 17 17 18 18 18 18 18
18 18 18 18 18 18 17 17 17 17 18 18 18 18 18 18 18 18 18 18 18 18 18 17 17 18 18 18 17 17 17 17 17 17 17 17 17 17 17 17 17 17 17
18 18 18 18 18 18 17 17 17 17 17 18 18 17 17 17 18 18 18 18 18 17 17 17 17 17 17 17 17 17 17 17 17 17 17 17 17 17 17 17 17 17 17
17 17 17 17 17 17 17 17 17 17 17 17 17 17 17 17 17 17 17 17 17 17 17 17 17 17 17 17 17 17 17 17 17 17 17 17 17 17 17 17 17 17 17
17 17 17 17 17 17 17 17 17 17 17 17 17 17 17 17 17 17 17 17 17 17 17 17 17 17 17 17 17 17 17 17 17 17 17 17 17 17 17 17 17 17 17
17 17 17 17 17 17 17 17 17 17 17 17 17 17 17 17 17 17 17 17 17 17 17 17 17 17 17 17 17 17 17 17 17 17 17 17 17 17 17 17 17 17 17
17 17 17 17 17 17 17 17 17 17 17 17 17 17 17 17 17 17 17 17 17 17 17 17 17 16 16 16 16 17 17 17 17 17 17 17 17 17 17 17 17 17 17
17 17 17 17 17 17 17 17 17 17 17 17 17 17 17 17 17 17 17 17 17 17 16 16 16 16 16 16 16 16 16 17 17 16 16 16 16 17 16 16 17 16 16
17 17 17 17 17 17 17 16 16 16 16 16 16 16 16 16 16 16 16 16 16 16 16 16 16 16 16 16 16 16 16 16 16 16 16 16 16 16 16 16 16 16 16
17 17 17 17 17 17 16 16 16 16 16 16 16 16 16 16 16 16 16 16 16 16 16 16 16 16 16 16 16 16 16 16 16 16 16 16 16 16 16 16 16 16 16
17 17 17 17 17 16 16 16 16 16 16 16 16 16 16 16 16 16 16 16 16 16 16 16 16 16 16 16 16 16 16 16 16 15 15 16 16 16 16 16 16 16 16
17 17 17 17 16 16 16 16 16 16 16 16 16 16 16 16 16 16 16 16 16 16 16 16 16 16 16 16 16 15 15 15 15 15 15 15 15 16 16 16 15 15 15
17 17 17 16 16 16 16 16 16 16 16 16 16 16 16 16 16 16 16 16 16 16 16 16 15 15 15 15 15 15 15 15 15 15 15 15 15 15 15 15 15 15 15
17 17 17 16 16 16 16 16 16 16 16 16 16 15 15 16 16 16 16 15 16 16 16 15 15 15 15 15 15 15 15 15 15 15 15 15 15 15 15 15 15 15 15
17 17 17 17 16 16 16 16 16 16 16 16 16 16 15 16 16 15 15 15 15 15 15 15 15 15 15 15 15 15 15 15 15 15 15 15 15 15 15 15 15 15 15
17 17 17 17 16 16 16 16 16 16 16 15 15 15 15 15 15 15 15 15 15 15 15 15 15 15 15 15 15 15 15 15 15 15 15 15 14 14 14 14 14 14 14
17 17 17 16 16 16 16 16 16 15 15 15 15 15 15 15 15 15 15 15 15 15 15 15 15 15 15 15 15 15 15 14 14 14 14 14 14 14 14 14 14 14 14
18 17 17 17 16 16 16 16 16 15 15 15 15 15 15 15 15 15 15 15 15 15 15 15 14 14 15 15 14 14 14 14 14 14 14 14 14 14 14 14 14 14 14
18 17 17 17 16 16 16 16 15 15 15 15 15 15 15 15 15 15 15 15 14 14 14 14 14 14 14 14 14 14 14 14 14 14 14 14 14 14 13 13 13 13 13
18 17 17 16 16 16 16 15 15 15 15 15 15 15 15 15 15 15 14 14 14 14 14 14 14 14 14 14 14 14 14 14 14 14 14 13 13 13 13 13 13 13 13
18 17 17 16 16 16 16 15 15 15 15 15 15 14 14 14 14 14 14 14 14 14 14 14 14 14 14 14 14 14 13 13 13 13 13 13 13 13 13 13 13 13 13
17 17 17 16 16 16 16 15 15 15 15 15 14 14 14 14 14 14 14 14 14 14 14 13 13 13 13 13 13 13 13 13 13 13 13 13 13 13 13 13 13 13 13
17 17 17 16 16 16 15 15 15 15 15 14 14 14 14 14 14 14 14 13 13 13 13 13 13 13 13 13 13 13 13 13 13 12 12 13 13 13 13 13 12 13 13
17 17 16 16 16 16 15 15 15 15 14 14 14 13 13 13 13 13 13 13 13 13 13 13 13 13 13 13 13 13 13 13 13 12 12 12 12 12 12 12 12 12 12
17 16 16 16 16 15 15 15 15 15 14 14 14 13 13 13 13 13 13 13 13 13 13 13 12 12 12 12 12 12 12 12 12 12 12 12 12 12 12 12 12 12 12
Wind_Speed
1 3 7 8 9 9 10 11 11 11 11 12 12 13 12 12 12 12 13 13 13 13 13 12 12 12 11 11 11 11 11 10 9 9 9 8 9 8 8 8 7 6 7
5 6 8 9 9 10 10 11 11 12 12 12 12 12 12 12 12 12 12 13 13 13 13 12 12 11 11 11 11 11 11 10 9 9 9 8 8 7 7 8 7 6 6
6 7 9 9 10 11 11 11 11 12 12 12 12 12 12 12 12 12 12 12 12 13 12 12 11 11 11 11 11 11 10 10 9 9 8 6 6 7 7 7 7 7 7
8 8 9 10 11 11 11 11 12 12 12 12 12 12 12 12 12 12 12 12 12 12 12 11 11 10 11 11 11 11 11 10 10 9 7 5 5 7 7 7 7 7 7
7 8 9 11 11 11 11 11 12 12 11 12 12 12 12 12 11 11 11 11 11 11 11 11 10 10 10 10 10 11 10 10 10 9 7 6 5 7 7 7 7 6 6
7 7 10 11 11 11 11 11 12 12 12 12 11 11 11 11 11 10 10 10 10 10 10 10 10 10 10 10 10 10 10 10 9 7 6 6 6 7 7 7 6 6 6
6 7 9 11 11 11 11 11 12 12 11 11 11 11 11 11 11 10 9 9 9 9 9 9 9 9 9 9 10 10 10 10 9 7 6 5 6 7 8 7 6 6 6
7 6 8 10 11 11 11 11 11 11 12 11 11 11 11 10 10 9 9 8 8 8 8 8 8 8 9 9 9 10 10 9 8 7 6 5 6 7 7 7 7 7 6
7 6 6 8 9 10 10 10 10 10 10 10 11 11 10 10 9 8 7 7 7 7 7 7 7 7 7 8 9 10 10 10 8 6 6 5 6 7 8 8 8 8 8
6 5 5 6 7 7 8 9 9 9 9 9 9 9 9 8 8 8 6 6 5 6 6 6 6 6 6 7 8 10 10 9 8 6 5 6 9 9 8 9 9 9 9
6 4 4 4 5 5 6 7 8 8 8 7 7 7 6 5 5 5 6 5 5 5 4 4 4 5 6 7 8 9 9 7 7 5 5 8 10 10 10 10 10 10 10
5 5 4 4 4 4 5 6 5 5 5 5 5 5 5 4 4 4 5 5 5 5 5 5 6 6 5 5 6 7 6 6 5 5 6 10 11 11 11 10 10 10 10
6 6 5 5 4 4 3 5 3 4 3 3 4 4 4 3 3 3 3 3 4 5 4 5 6 5 5 4 5 5 5 5 4 4 6 9 10 10 10 10 9 9 9
6 6 5 5 4 3 4 4 3 2 2 2 2 3 4 2 1 1 1 1 2 3 3 3 3 3 3 4 4 4 4 4 4 4 5 7 8 9 9 9 9 9 8
6 5 6 6 5 4 3 3 3 2 2 2 2 3 4 3 2 1 1 1 2 3 3 2 2 3 2 3 4 5 4 4 4 4 4 7 8 8 8 8 8 8 8
6 6 5 6 5 5 4 3 3 3 3 4 4 4 5 4 3 2 2 2 2 2 2 3 3 3 2 2 3 3 3 4 4 4 4 5 6 7 7 7 7 7 7
6 6 6 6 6 5 5 4 4 4 5 4 4 5 6 5 4 3 3 2 2 3 4 4 4 3 3 3 3 2 3 3 3 3 4 4 4 5 6 6 6 6 6
7 6 6 7 6 5 4 4 3 4 5 4 5 5 6 7 7 5 3 2 3 4 4 3 3 3 3 3 2 2 2 2 3 3 3 3 3 4 4 6 6 6 5
8 7 6 6 7 6 5 4 4 4 4 4 5 5 6 7 7 6 4 3 4 4 3 3 3 2 2 2 2 2 2 1 1 3 3 3 3 4 4 5 6 6 5
7 7 7 7 6 6 4 4 3 4 3 4 4 5 6 6 7 6 4 4 5 4 4 3 3 3 2 1 2 3 3 2 2 2 2 2 3 3 4 4 5 4 5
7 7 7 7 6 5 4 3 3 2 2 2 2 4 6 6 6 6 4 3 4 4 3 3 2 3 2 2 3 3 4 4 3 2 2 2 2 2 3 3 4 3 3
8 7 7 7 7 6 5 4 3 3 2 1 2 3 5 6 5 5 4 3 3 3 4 4 3 2 2 2 2 2 3 4 4 3 2 2 2 2 2 2 3 3 3
8 8 8 7 7 6 6 4 4 3 3 2 2 1 2 4 4 5 5 4 3 3 2 2 2 3 1 2 2 3 2 2 2 3 3 3 2 2 1 2 3 2 2
9 8 8 8 7 6 7 6 6 4 3 2 2 1 1 2 3 4 4 4 3 2 2 1 2 2 2 0 1 1 2 3 2 1 3 3 3 2 1 1 2 2 2
8 8 8 7 7 6 7 7 7 5 3 2 2 2 1 1 2 3 4 3 2 2 2 1 2 2 2 2 1 1 2 2 2 2 1 3 3 2 1 1 1 1 1
7 7 7 8 7 7 7 7 7 7 5 5 3 3 2 1 0 1 3 3 2 2 2 2 2 2 2 2 1 1 2 2 1 2 1 1 2 2 2 1 1 0 0
Wind_Direction
136 136 111 97 90 87 87 86 84 85 88 91 92 92 90 89 91 93 93 92 93 92 90 88 86 85 83 84 86 86 87 87 87 87 88 91 97 96 96 99 101 99 102
148 133 117 105 98 93 90 88 89 89 89 92 91 92 91 90 92 95 95 94 95 94 92 89 85 81 81 81 81 81 79 79 81 80 79 81 90 92 94 99 100 100 104
125 123 117 110 105 99 96 93 92 92 92 92 91 90 92 92 93 95 97 97 97 95 94 90 85 81 80 80 77 76 75 74 78 79 75 68 78 92 93 95 96 95 97
123 122 119 113 107 102 99 98 95 94 94 92 90 90 92 92 94 97 99 99 98 96 94 91 87 83 81 77 73 70 69 72 77 77 67 62 74 94 98 98 97 95 94
113 117 119 114 108 103 101 100 96 96 94 94 92 92 95 94 94 95 98 97 97 96 94 92 89 86 83 78 74 70 68 75 77 72 66 61 68 92 99 100 97 95 93
108 111 118 114 110 104 102 101 98 97 96 95 93 95 97 98 98 97 96 96 95 97 97 94 90 87 84 80 76 74 74 76 71 68 67 65 71 90 95 93 94 92 90
117 114 118 115 111 105 102 100 101 98 98 96 94 94 96 99 100 102 103 102 98 95 93 93 90 87 86 82 79 78 77 73 72 66 64 65 78 94 94 90 91 89 87
124 116 118 117 114 110 107 104 102 100 97 95 94 94 96 96 97 101 102 102 103 100 95 90 85 84 84 81 79 78 75 76 74 69 70 68 84 92 92 90 86 84 81
118 113 109 117 115 114 112 110 105 104 101 98 97 93 92 92 92 97 106 105 106 104 96 85 78 88 88 85 81 76 77 76 73 69 73 67 77 87 88 88 85 82 78
120 120 116 116 118 118 117 115 112 108 104 100 100 97 92 89 87 89 94 103 109 104 96 87 78 87 85 84 79 76 80 78 75 67 67 68 71 78 83 87 84 80 76
130 133 129 123 127 132 128 120 117 112 108 103 100 98 89 79 81 86 88 85 79 78 82 87 81 76 76 74 78 75 78 77 77 70 75 78 73 74 80 83 80 76 72
149 151 146 146 147 150 141 124 119 113 110 103 101 99 96 89 84 88 80 80 70 58 55 60 59 61 61 54 64 72 80 78 76 75 79 80 78 75 75 78 77 73 70
159 154 156 158 158 155 135 130 123 114 113 104 103 109 110 91 78 77 68 65 61 51 44 43 45 51 56 57 67 78 86 86 85 79 80 80 79 78 76 75 76 73 69
149 158 160 161 153 154 141 135 131 125 122 126 136 125 120 108 85 91 93 69 63 62 52 45 49 53 57 65 81 87 90 96 94 84 77 82 84 83 81 79 77 72 70
148 155 157 156 151 140 126 126 125 140 134 136 135 126 125 126 111 106 99 83 57 63 64 65 63 59 50 64 85 102 98 96 101 96 85 83 83 86 85 82 80 76 70
153 155 153 153 153 136 132 128 122 124 118 106 99 102 108 115 110 100 83 66 53 60 74 82 77 68 54 64 74 96 110 109 104 106 97 86 80 80 82 84 83 78 74
160 156 154 154 150 143 139 133 119 119 110 98 92 91 94 103 109 110 94 70 57 72 79 70 62 60 60 56 49 62 95 106 111 109 109 94 83 78 74 75 79 80 77
157 153 157 154 147 144 135 119 107 105 99 92 94 86 83 94 100 97 84 73 76 83 74 73 62 56 47 47 41 33 54 92 108 115 115 101 88 82 72 66 68 78 74
163 155 151 142 142 141 130 112 105 100 94 94 93 86 80 84 92 93 83 74 81 75 68 75 64 71 59 35 32 37 32 45 88 113 108 109 102 93 83 69 64 65 65
160 154 148 141 140 133 118 101 90 85 79 82 86 88 89 88 92 91 83 71 76 70 58 62 65 49 55 31 40 34 21 17 51 88 108 115 108 95 86 74 66 56 55
152 152 151 147 149 135 122 119 116 116 93 79 82 92 92 94 96 92 81 75 72 76 74 67 64 53 31 37 57 25 10 19 32 26 45 88 82 81 86 85 81 66 51
159 159 154 154 152 149 147 148 147 141 129 117 77 81 90 98 101 102 98 95 83 79 67 60 73 74 20 39 96 81 20 3 2 12 17 56 66 69 63 77 92 85 70
161 165 163 161 157 154 146 127 107 81 66 59 51 59 74 101 107 108 113 106 98 94 93 81 96 111 102 7 67 127 133 208 317 345 2 19 38 63 54 70 82 96 97
174 166 158 163 164 160 149 145 142 140 149 179 177 174 133 107 113 119 119 113 109 106 110 104 89 101 118 85 11 51 130 153 154 323 339 351 8 35 41 74 76 87 109
172 167 164 165 166 158 157 158 154 151 163 160 153 154 159 131 116 123 125 123 120 119 138 115 89 91 109 135 141 106 77 67 95 144 267 323 349 347 6 55 90 95 107
161 165 166 166 170 166 161 162 165 165 163 153 159 172 183 178 180 135 131 132 136 142 165 151 127 111 105 106 103 104 127 128 148 141 181 260 297 309 343 359 19 97 122
Height
1520 1519 1519 1519 1518 1518 1517 1517 1516 1516 1516 1516 1516 1516 1516 1516 1516 1516 1516 1517 1517 1517 1517 1518 1518 1518 1518 1518 1519 1519 1519 1519 1519 1520 1520 1520 1520 1520 1520 1520 1520 1520 1520
1520 1520 1520 1519 1519 1519 1518 1518 1517 1517 1517 1517 1517 1517 1517 1517 1516 1517 1517 1517 1517 1518 1518 1518 1519 1519 1519 1519 1519 1519 1520 1520 1520 1520 1520 1520 1521 1521 1521 1521 1521 1521 1521
1520 1520 1520 1520 1520 1519 1519 1519 1518 1518 1518 1518 1518 1518 1518 1517 1517 1517 1517 1518 1518 1518 1518 1519 1519 1520 1520 1520 1520 1520 1520 1520 1520 1521 1521 1521 1521 1521 1521 1521 1521 1521 1521
1520 1521 1521 1521 1520 1520 1520 1520 1519 1519 1519 1519 1519 1518 1518 1518 1518 1518 1518 1518 1519 1519 1519 1520 1520 1520 1521 1521 1521 1521 1521 1521 1521 1521 1521 1521 1521 1521 1521 1521 1521 1521 1521
1521 1521 1521 1521 1521 1521 1521 1521 1520 1520 1520 1520 1520 1520 1519 1519 1519 1519 1519 1519 1520 1520 1520 1520 1521 1521 1521 1521 1521 1521 1522 1522 1522 1522 1522 1522 1522 1521 1521 1521 1521 1521 1521
1522 1522 1522 1522 1522 1521 1521 1521 1521 1521 1521 1521 1521 1521 1521 1520 1520 1520 1520 1520 1520 1520 1521 1521 1521 1521 1522 1522 1522 1522 1522 1523 1522 1522 1522 1522 1522 1522 1521 1521 1521 1521 1521
1522 1523 1523 1523 1522 1522 1522 1522 1523 1522 1522 1522 1522 1522 1522 1522 1521 1521 1521 1521 1521 1521 1521 1522 1522 1522 1522 1523 1523 1523 1523 1523 1523 1523 1522 1522 1522 1522 1521 1521 1521 1521 1521
1523 1523 1523 1523 1523 1523 1523 1524 1523 1523 1523 1523 1523 1523 1523 1523 1522 1522 1522 1522 1522 1522 1522 1522 1523 1523 1523 1523 1524 1524 1524 1524 1523 1523 1523 1522 1522 1521 1521 1521 1521 1521 1521
1524 1524 1524 1524 1524 1524 1524 1525 1525 1524 1524 1524 1524 1524 1524 1524 1524 1523 1523 1524 1523 1523 1523 1523 1523 1523 1524 1524 1524 1524 1524 1524 1524 1524 1523 1522 1521 1520 1520 1520 1521 1521 1521
1525 1525 1525 1525 1525 1526 1526 1526 1526 1526 1526 1526 1525 1525 1525 1525 1525 1525 1525 1525 1525 1525 1525 1525 1525 1525 1525 1525 1525 1525 1525 1525 1525 1524 1524 1523 1521 1520 1520 1520 1521 1521 1521
1525 1526 1526 1526 1526 1527 1527 1527 1527 1527 1527 1527 1527 1527 1527 1526 1526 1526 1526 1526 1526 1526 1526 1526 1526 1526 1526 1526 1525 1525 1526 1526 1526 1525 1525 1524 1522 1521 1521 1521 1521 1521 1522
1525 1526 1527 1527 1527 1527 1528 1528 1528 1528 1528 1528 1528 1528 1528 1527 1527 1527 1527 1527 1527 1527 1527 1527 1527 1527 1527 1526 1526 1526 1527 1527 1527 1526 1526 1525 1524 1523 1522 1522 1522 1522 1522
1525 1526 1527 1527 1528 1528 1528 1529 1529 1529 1529 1529 1529 1529 1528 1528 1528 1528 1528 1528 1528 1528 1528 1528 1528 1528 1528 1527 1527 1527 1528 1528 1528 1527 1527 1526 1525 1525 1524 1523 1524 1523 1523
1525 1526 1527 1527 1528 1528 1529 1529 1529 1529 1529 1529 1529 1529 1529 1529 1529 1529 1529 1528 1528 1528 1529 1529 1529 1529 1529 1529 1528 1528 1528 1528 1528 1528 1528 1527 1527 1526 1525 1525 1524 1524 1523
1525 1526 1527 1528 1528 1529 1529 1529 1530 1530 1530 1530 1530 1530 1530 1530 1529 1529 1529 1529 1529 1529 1529 1529 1529 1529 1529 1529 1529 1529 1529 1529 1529 1529 1528 1528 1528 1527 1526 1526 1525 1525 1524
1524 1525 1526 1527 1528 1529 1529 1530 1530 1530 1531 1531 1531 1531 1531 1530 1530 1530 1530 1530 1530 1530 1530 1530 1530 1530 1530 1530 1530 1530 1530 1530 1530 1530 1529 1529 1528 1528 1527 1526 1526 1525 1524
1523 1524 1526 1527 1528 1529 1530 1530 1530 1531 1531 1531 1531 1531 1531 1531 1531 1530 1530 1530 1530 1530 1530 1530 1530 1530 1530 1530 1530 1531 1531 1530 1530 1530 1530 1530 1529 1528 1528 1527 1526 1526 1525
1522 1524 1525 1526 1527 1529 1529 1530 1530 1531 1531 1531 1531 1531 1531 1531 1531 1531 1531 1530 1531 1531 1531 1530 1530 1531 1530 1531 1531 1531 1531 1531 1531 1531 1530 1530 1530 1529 1528 1527 1526 1526 1525
1521 1523 1524 1525 1526 1528 1529 1530 1530 1531 1531 1531 1531 1531 1531 1531 1531 1531 1530 1530 1531 1531 1530 1530 1530 1530 1530 1531 1531 1531 1531 1531 1531 1531 1531 1530 1530 1530 1529 1528 1527 1526 1526
1520 1522 1523 1524 1525 1527 1528 1529 1530 1530 1531 1531 1531 1531 1531 1531 1531 1531 1530 1530 1530 1530 1530 1530 1530 1530 1530 1530 1530 1531 1531 1531 1531 1531 1531 1530 1530 1530 1529 1528 1527 1527 1526
1519 1520 1521 1523 1524 1526 1527 1528 1528 1529 1530 1530 1531 1531 1531 1531 1530 1530 1530 1530 1530 1530 1530 1529 1530 1530 1530 1530 1530 1531 1531 1531 1531 1531 1531 1530 1530 1530 1529 1528 1527 1527 1527
1517 1518 1520 1522 1523 1524 1526 1527 1528 1529 1529 1530 1530 1530 1530 1530 1530 1530 1530 1529 1529 1529 1529 1529 1529 1529 1529 1530 1530 1530 1531 1532 1531 1531 1531 1530 1530 1529 1529 1528 1527 1527 1526
1514 1516 1518 1520 1522 1523 1525 1526 1527 1528 1528 1529 1529 1529 1529 1529 1529 1529 1529 1529 1529 1529 1528 1528 1529 1529 1529 1529 1529 1530 1530 1530 1530 1531 1530 1530 1529 1529 1528 1528 1527 1526 1526
1512 1514 1516 1519 1520 1522 1523 1524 1525 1526 1526 1527 1527 1528 1528 1529 1529 1529 1528 1528 1528 1528 1528 1528 1528 1528 1528 1528 1528 1529 1529 1529 1529 1529 1530 1529 1529 1528 1528 1527 1527 1526 1526
1510 1513 1515 1517 1519 1520 1522 1523 1523 1524 1525 1526 1526 1527 1527 1528 1528 1528 1527 1527 1527 1527 1527 1527 1527 1527 1527 1527 1527 1527 1527 1528 1528 1528 1528 1528 1528 1528 1527 1527 1526 1526 1525
1509 1512 1513 1515 1517 1518 1520 1521 1522 1523 1523 1524 1525 1525 1526 1526 1526 1526 1526 1526 1526 1526 1526 1526 1526 1526 1526 1526 1526 1526 1526 1526 1526 1527 1526 1526 1526 1526 1526 1526 1525 1525 1524